Location: Newark
(35.9667°S, 26.6167°E)
Time: 12:29:55
(UTC+00:00)

Hubble Space Telescope - Visible Passes

Search period start: 17 October 2019 00:00
Search period end: 27 October 2019 00:00
Orbit: 536 x 540 km, 28.5° (Epoch: 16 October)

Date Brightness Start Highest point End Pass type
(mag) Time Alt. Az. Time Alt. Az. Time Alt. Az.
17 Oct 2.9 01:47:45 14° NNE 01:47:45 14° NNE 01:48:55 10° NNE visible
22 Oct 3.0 17:57:22 10° N 17:58:17 12° N 17:58:17 12° N visible
23 Oct 2.6 17:46:11 10° NNW 17:48:47 16° NNE 17:48:51 16° NNE visible
24 Oct 2.4 17:35:10 10° NNW 17:38:05 19° NNE 17:39:17 17° NE visible
25 Oct 2.3 17:24:15 10° NW 17:27:25 21° NNE 17:29:38 14° NE visible
25 Oct 3.4 19:04:30 10° WNW 19:04:58 12° WNW 19:04:58 12° WNW visible
26 Oct 2.2 17:13:25 10° NW 17:16:46 23° N 17:19:52 11° ENE visible
26 Oct 2.9 18:53:52 10° WNW 18:55:12 18° NW 18:55:12 18° NW visible
